EW7082 Weather Reports


Display with metric or nautical units.
time (UTC)temp
F
wind
direction
speed
MPH
gust
MPH
rain 1hr
in
rain 24hr
in
rain mn
in
humidity
%
barometer
mb
20260506020705 57 264 6.0 12.0 0.00 0.00 0.00 83 1015.3
20260506020204 57 270 6.0 12.0 0.00 0.00 0.00 83 1015.3
20260506015705 57 283 9.0 13.0 0.00 0.00 0.00 82 1015.3
20260506014705 58 275 8.0 12.0 0.00 0.00 0.00 82 1015.2
20260506014204 58 261 8.0 12.0 0.00 0.00 0.00 82 1015.3
20260506013704 58 265 8.0 14.0 0.00 0.00 0.00 82 1015.3
20260506013204 58 268 8.0 13.0 0.00 0.00 0.00 81 1015.3
20260506012704 58 281 8.0 14.0 0.00 0.00 0.00 82 1015.4
20260506012205 58 274 9.0 14.0 0.00 0.00 0.00 81 1015.4
20260506011703 58 275 8.0 12.0 0.00 0.00 0.00 81 1015.3
20260506010705 59 270 9.0 13.0 0.00 0.00 0.00 80 1015.3
20260506010204 59 262 7.0 12.0 0.00 0.00 0.00 81 1015.3
20260506005705 58 262 10.0 16.0 0.00 0.00 0.00 80 1015.4
20260506005205 59 257 10.0 16.0 0.00 0.00 0.00 80 1015.5
20260506004704 59 268 6.0 12.0 0.00 0.00 0.00 81 1015.5
20260506004204 59 265 10.0 16.0 0.00 0.00 0.00 80 1015.5
20260506003704 59 269 9.0 16.0 0.00 0.00 0.00 81 1015.5
20260506003204 59 286 9.0 14.0 0.00 0.00 0.00 80 1015.5
20260506002205 59 252 9.0 14.0 0.00 0.00 0.00 81 1015.5
20260506001704 59 270 10.0 15.0 0.00 0.00 0.00 80 1015.5
20260506001204 59 245 12.0 16.0 0.00 0.00 0.00 80 1015.5
20260506000704 59 260 9.0 15.0 0.00 0.00 0.00 79 1015.5
20260506000205 60 279 7.0 12.0 0.00 0.00 0.00 81 1015.6
20260505235703 60 259 11.0 20.0 0.00 0.00 0.00 78 1015.7
20260505234704 60 288 7.0 13.0 0.00 0.00 0.00 80 1015.8
20260505234204 60 260 9.0 14.0 0.00 0.00 0.00 79 1015.8
20260505233704 60 257 7.0 12.0 0.00 0.00 0.00 80 1015.9
20260505233205 60 265 7.0 13.0 0.00 0.00 0.00 80 1015.9
20260505232705 60 251 10.0 13.0 0.00 0.00 0.00 79 1015.9
20260505232205 61 281 6.0 12.0 0.00 0.00 0.00 79 1016.0
20260505231704 61 282 5.0 13.0 0.00 0.00 0.00 80 1016.0
20260505230704 60 268 7.0 12.0 0.00 0.00 0.00 81 1015.9
20260505230204 60 281 9.0 14.0 0.00 0.00 0.00 80 1016.0
20260505225704 60 302 7.0 12.0 0.00 0.00 0.00 81 1016.0
20260505225205 60 283 6.0 13.0 0.00 0.00 0.00 80 1016.1
20260505224704 61 270 7.0 12.0 0.00 0.00 0.00 81 1016.1
20260505224204 60 317 6.0 12.0 0.00 0.00 0.00 80 1016.2
20260505223704 60 296 7.0 15.0 0.00 0.00 0.00 81 1016.2
20260505223203 60 303 7.0 12.0 0.00 0.00 0.00 80 1016.2
20260505222703 61 268 9.0 13.0 0.00 0.00 0.00 81 1016.2
20260505222206 60 292 6.0 12.0 0.00 0.00 0.00 83 1016.2
20260505221705 60 301 6.0 12.0 0.00 0.00 0.00 83 1016.2
20260505221204 60 285 6.0 10.0 0.00 0.00 0.00 82 1016.3
20260505220705 60 279 4.0 12.0 0.00 0.00 0.00 83 1016.3
20260505220204 60 310 6.0 12.0 0.00 0.00 0.00 83 1016.4
20260505215704 60 303 5.0 12.0 0.00 0.00 0.00 84 1016.4
20260505215204 59 291 3.0 9.0 0.00 0.00 0.00 84 1016.5
20260505214703 60 303 6.0 10.0 0.00 0.00 0.00 83 1016.5
20260505214203 60 295 6.0 9.0 0.00 0.00 0.00 84 1016.6
20260505213704 59 286 5.0 8.0 0.00 0.00 0.00 84 1016.6
20260505213204 59 315 6.0 10.0 0.00 0.00 0.00 84 1016.6
20260505212704 59 323 7.0 10.0 0.00 0.00 0.00 83 1016.7
20260505212204 59 282 3.0 10.0 0.00 0.00 0.00 84 1016.7
20260505211704 59 280 5.0 9.0 0.00 0.00 0.00 84 1016.7
20260505211204 59 287 3.0 9.0 0.00 0.00 0.00 84 1016.7
20260505210706 59 323 3.0 7.0 0.00 0.00 0.00 84 1016.6
20260505210203 59 341 1.0 6.0 0.00 0.00 0.00 86 1016.6
20260505205704 59 284 4.0 8.0 0.00 0.00 0.00 84 1016.6
20260505205204 59 264 3.0 7.0 0.00 0.00 0.00 84 1016.6
20260505204704 59 288 2.0 6.0 0.00 0.00 0.00 85 1016.6
20260505204204 59 312 2.0 3.0 0.00 0.00 0.00 85 1016.7
20260505203705 59 239 2.0 3.0 0.00 0.00 0.00 86 1016.7
20260505203204 58 262 2.0 3.0 0.00 0.00 0.00 86 1016.7
20260505202704 58 296 3.0 6.0 0.00 0.00 0.00 86 1016.7
20260505202204 59 277 1.0 5.0 0.00 0.00 0.00 86 1016.7
20260505201704 59 276 3.0 6.0 0.00 0.00 0.00 88 1016.7
20260505201204 58 250 2.0 6.0 0.00 0.00 0.00 88 1016.7
20260505200204 58 250 2.0 6.0 0.00 0.00 0.00 88 1016.7
20260505195205 58 239 1.0 3.0 0.00 0.00 0.00 89 1016.7
20260505194705 58 205 3.0 5.0 0.00 0.00 0.00 89 1016.7
20260505194204 57 208 1.0 3.0 0.00 0.00 0.00 90 1016.7
20260505193705 57 312 2.0 3.0 0.00 0.00 0.00 89 1016.7
20260505193204 57 214 3.0 5.0 0.00 0.00 0.00 90 1016.7
20260505192704 57 247 2.0 3.0 0.00 0.00 0.00 91 1016.7
20260505192204 56 316 2.0 3.0 0.00 0.00 0.00 90 1016.7
20260505191704 56 311 3.0 7.0 0.00 0.00 0.00 90 1016.7
20260505191205 56 252 1.0 7.0 0.00 0.00 0.00 90 1016.7
20260505190705 56 260 3.0 6.0 0.00 0.00 0.00 90 1016.7
20260505190204 56 243 2.0 7.0 0.00 0.00 0.00 91 1016.7
20260505185704 56 269 2.0 6.0 0.00 0.00 0.00 91 1016.7
20260505185206 56 282 1.0 3.0 0.00 0.00 0.00 91 1016.7
20260505184704 55 314 2.0 3.0 0.00 0.00 0.00 91 1016.7
20260505184204 55 292 3.0 6.0 0.00 0.00 0.00 92 1016.6
20260505183705 55 265 2.0 3.0 0.00 0.00 0.00 92 1016.7
20260505183204 55 288 1.0 3.0 0.00 0.00 0.00 92 1016.8
20260505182704 55 310 1.0 3.0 0.00 0.00 0.00 93 1016.8
20260505182204 55 331 2.0 5.0 0.00 0.00 0.00 93 1016.8
20260505181704 55 345 2.0 6.0 0.00 0.00 0.00 93 1016.7
20260505181203 55 325 3.0 5.0 0.00 0.00 0.00 94 1016.7
20260505180705 55 13 3.0 5.0 0.00 0.00 0.00 94 1016.6
20260505180203 55 348 3.0 5.0 0.00 0.00 0.00 94 1016.6
20260505175205 54 316 1.0 3.0 0.00 0.00 0.00 94 1016.5
20260505174204 54 317 1.0 3.0 0.00 0.00 0.00 95 1016.4
20260505173204 54 35 2.0 3.0 0.00 0.00 0.00 96 1016.3
20260505172703 54 27 2.0 3.0 0.00 0.00 0.00 96 1016.3
20260505172204 54 331 1.0 3.0 0.00 0.00 0.00 96 1016.3
20260505171704 54 329 2.0 3.0 0.00 0.00 0.00 96 1016.3
20260505171204 54 32 1.0 3.0 0.00 0.00 0.00 96 1016.3
20260505170704 54 305 1.0 3.0 0.00 0.00 0.00 96 1016.3
20260505170204 53 265 2.0 3.0 0.00 0.00 0.00 96 1016.3
20260505165704 53 307 2.0 3.0 0.00 0.00 0.00 96 1016.3
20260505165204 54 270 2.0 3.0 0.00 0.00 0.00 96 1016.3
20260505163705 54 314 2.0 3.0 0.00 0.00 0.00 96 1016.3
20260505162205 53 281 2.0 3.0 0.00 0.00 0.00 96 1016.3
20260505161704 53 272 2.0 3.0 0.00 0.00 0.00 96 1016.2
20260505161204 53 282 2.0 3.0 0.00 0.00 0.00 96 1016.2
20260505160704 53 275 2.0 6.0 0.00 0.00 0.00 96 1016.2
20260505160205 53 272 2.0 3.0 0.00 0.00 0.00 96 1016.1
20260505152704 53 293 1.0 3.0 0.00 0.00 0.00 96 1015.9
20260505152204 53 309 2.0 3.0 0.00 0.00 0.00 96 1015.9
20260505151704 53 281 1.0 2.0 0.00 0.00 0.00 96 1015.9
20260505151204 53 280 0.0 0.0 0.00 0.00 0.00 96 1015.8
20260505150704 53 267 0.0 0.0 0.00 0.00 0.00 96 1015.8
20260505150203 53 191 0.0 0.0 0.00 0.00 0.00 96 1015.8
20260505140203 52 179 0.0 0.0 0.00 0.00 0.00 96 1015.2
20260505130204 52 244 1.0 2.0 0.00 0.00 0.00 95 1014.4
20260505124704 52 188 0.0 1.0 0.00 0.00 0.00 96 1014.3
20260505124205 52 188 0.0 1.0 0.00 0.00 0.00 96 1014.4
20260505123704 52 187 0.0 1.0 0.00 0.00 0.00 96 1014.3
20260505123204 52 187 0.0 2.0 0.00 0.00 0.00 96 1014.3
20260505122704 52 253 1.0 3.0 0.00 0.00 0.00 96 1014.2
20260505122205 52 274 1.0 2.0 0.00 0.00 0.00 96 1014.2
20260505121705 52 269 2.0 3.0 0.00 0.00 0.00 96 1014.2
20260505121203 51 282 2.0 3.0 0.00 0.00 0.00 96 1014.1
20260505120704 51 271 1.0 3.0 0.00 0.00 0.00 96 1014.1
20260505120205 51 289 2.0 3.0 0.00 0.00 0.00 96 1014.1
20260505115206 51 260 1.0 3.0 0.00 0.00 0.00 96 1014.0
20260505114704 51 273 1.0 2.0 0.00 0.00 0.00 96 1014.0
20260505114204 51 243 0.0 1.0 0.00 0.00 0.00 96 1013.9
20260505113705 51 257 0.0 2.0 0.00 0.00 0.00 96 1013.8
20260505112204 50 223 0.0 0.0 0.00 0.00 0.00 96 1013.6
20260505111705 50 223 1.0 3.0 0.00 0.00 0.00 96 1013.6
20260505111205 50 210 1.0 2.0 0.00 0.00 0.00 96 1013.5
20260505110704 50 225 1.0 2.0 0.00 0.00 0.00 96 1013.5
20260505110204 49 195 1.0 2.0 0.00 0.00 0.00 96 1013.5
20260505102204 46 215 1.0 2.0 0.00 0.00 0.00 95 1013.2
20260505101704 46 215 1.0 2.0 0.00 0.00 0.00 95 1013.1
20260505101205 46 202 1.0 2.0 0.00 0.00 0.00 95 1013.1
20260505100204 46 202 1.0 2.0 0.00 0.00 0.00 94 1013.1
20260505095704 46 202 0.0 1.0 0.00 0.00 0.00 94 1013.1
20260505095205 46 202 0.0 0.0 0.00 0.00 0.00 94 1013.1
20260505094704 46 202 0.0 3.0 0.00 0.00 0.00 94 1013.1
20260505093705 47 194 1.0 2.0 0.00 0.00 0.00 95 1013.0
20260505093204 47 206 0.0 1.0 0.00 0.00 0.00 94 1013.0
20260505092705 47 206 1.0 3.0 0.00 0.00 0.00 95 1013.0
20260505092205 48 206 1.0 2.0 0.00 0.00 0.00 94 1012.9
20260505091704 48 194 1.0 2.0 0.00 0.00 0.00 94 1012.9
20260505091205 49 209 1.0 2.0 0.00 0.00 0.00 94 1012.9
20260505090704 49 215 1.0 2.0 0.00 0.00 0.00 95 1012.9
20260505090205 49 224 0.0 2.0 0.00 0.00 0.00 95 1012.8
20260505085705 48 227 1.0 2.0 0.00 0.00 0.00 95 1012.8
20260505085206 48 227 1.0 3.0 0.00 0.00 0.00 94 1012.8
20260505084704 48 211 1.0 2.0 0.00 0.00 0.00 94 1012.7
20260505084204 48 211 1.0 2.0 0.00 0.00 0.00 94 1012.7
20260505083706 48 228 0.0 0.0 0.00 0.00 0.00 94 1012.7
20260505083204 48 228 1.0 2.0 0.00 0.00 0.00 93 1012.7
20260505082205 49 194 1.0 2.0 0.00 0.00 0.00 93 1012.6
20260505081204 50 223 0.0 2.0 0.00 0.00 0.00 93 1012.5
20260505080704 50 223 0.0 1.0 0.00 0.00 0.00 93 1012.6
20260505080204 50 223 0.0 1.0 0.00 0.00 0.00 93 1012.5
20260505075704 51 223 0.0 1.0 0.00 0.00 0.00 93 1012.5
20260505075204 51 223 0.0 1.0 0.00 0.00 0.00 93 1012.4
20260505074704 51 223 0.0 0.0 0.00 0.00 0.00 93 1012.4
20260505073704 51 223 1.0 3.0 0.00 0.00 0.00 93 1012.3
20260505072704 52 244 2.0 3.0 0.00 0.00 0.00 93 1012.2
20260505071703 52 265 2.0 3.0 0.00 0.00 0.00 93 1012.1
20260505071203 52 269 2.0 3.0 0.00 0.00 0.00 93 1012.1
20260505070705 52 249 3.0 6.0 0.00 0.00 0.00 93 1012.0
20260505070204 52 263 3.0 8.0 0.00 0.00 0.00 93 1011.9
20260505065205 52 280 3.0 7.0 0.00 0.00 0.00 92 1011.8
20260505064204 52 267 4.0 8.0 0.00 0.00 0.00 92 1011.7
20260505063704 52 257 3.0 7.0 0.00 0.00 0.00 92 1011.6
20260505062204 53 270 7.0 10.0 0.00 0.00 0.00 92 1011.6
20260505061704 53 283 5.0 12.0 0.00 0.00 0.00 92 1011.6
20260505060205 53 272 4.0 9.0 0.00 0.00 0.00 92 1011.4
20260505055205 53 273 4.0 8.0 0.00 0.00 0.00 92 1011.3
20260505054704 53 277 6.0 9.0 0.00 0.00 0.00 92 1011.2
20260505054204 53 256 6.0 10.0 0.00 0.00 0.00 92 1011.2
20260505053705 53 252 6.0 10.0 0.00 0.00 0.00 91 1011.2
20260505053204 53 268 7.0 13.0 0.00 0.00 0.00 91 1011.1
20260505052704 53 259 7.0 12.0 0.00 0.00 0.00 91 1011.1
20260505052205 53 259 8.0 13.0 0.00 0.00 0.00 91 1011.1
20260505051705 53 262 10.0 15.0 0.00 0.00 0.00 91 1010.9
20260505051203 53 273 9.0 18.0 0.00 0.00 0.00 91 1010.9
20260505050704 53 272 10.0 17.0 0.00 0.00 0.00 91 1010.8
20260505050204 53 272 10.0 17.0 0.00 0.00 0.00 90 1010.7
20260505041704 54 266 10.0 15.0 0.00 0.00 0.00 88 1010.2
20260505041203 54 267 10.0 14.0 0.00 0.00 0.00 87 1010.1
20260505040705 54 264 9.0 15.0 0.00 0.00 0.00 87 1010.1
20260505040204 54 272 12.0 16.0 0.00 0.00 0.00 87 1010.2
20260505035703 55 275 10.0 16.0 0.00 0.00 0.00 86 1010.1
20260505035205 55 259 8.0 14.0 0.00 0.00 0.00 85 1010.0
20260505034705 55 266 9.0 17.0 0.00 0.00 0.00 85 1010.1
20260505034204 55 266 10.0 16.0 0.00 0.00 0.00 84 1010.0
20260505033705 56 267 10.0 14.0 0.00 0.00 0.00 84 1009.9
20260505033204 56 274 9.0 13.0 0.00 0.00 0.00 83 1009.9
20260505032705 56 264 10.0 15.0 0.00 0.00 0.00 82 1009.9
20260505032204 56 261 9.0 14.0 0.00 0.00 0.00 82 1009.9
20260505031704 57 271 10.0 15.0 0.00 0.00 0.00 81 1009.9
20260505031203 57 271 11.0 17.0 0.00 0.00 0.00 81 1009.9
20260505030204 57 259 8.0 14.0 0.00 0.00 0.00 80 1009.8
20260505025703 58 272 10.0 15.0 0.00 0.00 0.00 79 1009.7
20260505024704 58 263 12.0 16.0 0.00 0.00 0.00 77 1009.7
20260505024204 59 264 10.0 15.0 0.00 0.00 0.00 76 1009.7
20260505023704 59 272 10.0 16.0 0.00 0.00 0.00 75 1009.7
20260505023205 60 270 9.0 14.0 0.00 0.00 0.00 74 1009.7
20260505022704 60 276 10.0 15.0 0.00 0.00 0.00 73 1009.7
20260505021704 62 278 9.0 13.0 0.00 0.00 0.00 71 1009.7
20260505021205 62 268 8.0 14.0 0.00 0.00 0.00 71 1009.7